EW4606 Weather Reports


time (UTC)temp
C
wind
direction
speed
KPH
gust
KPH
rain 1hr
cm
rain 24hr
cm
rain mn
cm
humidity
%
barometer
mb
20260502151522 10 360 0.0 0.0 0.00 0.00 0.00 30 1019.8
20260502151518 23 29 0.0 0.0 0.00 0.00 0.00 40 1008.8
20260502123117 0 360 0.0 0.0 0.00 0.00 0.00 59 1019.4
20260502123100 18 38 0.0 0.0 0.00 0.00 0.00 48 1006.8
20260502121600 0 360 0.0 0.0 0.00 0.00 0.00 58 1019.4
20260502121559 18 38 0.0 0.0 0.00 0.00 0.00 48 1006.7
20260502120119 0 360 0.0 0.0 0.00 0.00 0.00 58 1019.3
20260502120105 18 38 0.0 0.0 0.00 0.00 0.00 48 1006.7
20260502114600 18 38 0.0 0.0 0.00 0.00 0.00 47 1006.7
20260502114559 0 360 0.0 0.0 0.00 0.00 0.00 59 1019.2
20260502113100 18 38 0.0 0.0 0.00 0.00 0.00 48 1006.7
20260502113058 0 360 0.0 0.0 0.00 0.00 0.00 58 1019.1
20260502111557 17 38 0.0 0.0 0.00 0.00 0.00 52 1006.6
20260502111552 0 360 0.0 0.0 0.00 0.00 0.00 55 1019.2
20260502110100 18 38 0.0 0.0 0.00 0.00 0.00 51 1006.7
20260502110050 1 360 0.0 0.0 0.00 0.00 0.00 54 1019.3
20260502104553 18 38 0.0 0.0 0.00 0.00 0.00 51 1006.7
20260502104546 1 360 0.0 0.0 0.00 0.00 0.00 55 1019.2
20260502103053 18 38 0.0 0.0 0.00 0.00 0.00 49 1006.6
20260502103046 1 360 0.0 0.0 0.00 0.00 0.00 54 1019.2
20260502101550 19 38 0.0 0.0 0.00 0.00 0.00 48 1006.5
20260502101543 1 360 0.0 0.0 0.00 0.00 0.00 56 1019.2
20260502071520 23 153 0.0 0.0 0.00 0.00 0.00 37 1007.2
20260502071513 5 360 0.0 0.0 0.00 0.00 0.00 44 1019.3
20260502070017 23 152 0.0 0.0 0.00 0.00 0.00 37 1007.3
20260502064537 23 148 0.0 0.0 0.00 0.00 0.00 37 1007.3
20260502064509 6 360 0.0 0.0 0.00 0.00 0.00 42 1019.3
20260502063020 23 148 0.0 0.0 0.00 0.00 0.00 37 1007.2
20260502063008 6 360 0.0 0.0 0.00 0.00 0.00 41 1019.3
20260502061515 23 165 0.0 0.0 0.00 0.00 0.00 39 1007.3
20260502061505 6 360 0.0 0.0 0.00 0.00 0.00 39 1019.3
20260502060015 23 161 0.0 0.0 0.00 0.00 0.00 41 1007.1
20260502060003 6 360 0.0 0.0 0.00 0.00 0.00 39 1019.1
20260502054514 24 179 0.0 0.0 0.00 0.00 0.00 38 1007.1
20260502054500 7 360 0.0 0.0 0.00 0.00 0.00 36 1018.9
20260502053101 7 360 0.0 0.0 0.00 0.00 0.00 35 1018.7
20260502053014 24 203 0.0 0.0 0.00 0.00 0.00 36 1007.0
20260502051603 8 360 0.0 0.0 0.00 0.00 0.00 36 1018.5
20260502051514 25 183 0.0 0.0 0.00 0.00 0.00 37 1006.9
20260502050021 25 173 0.0 0.0 0.00 0.00 0.00 38 1007.0
20260502044614 8 360 0.0 0.0 0.00 0.00 0.00 34 1018.3
20260502044513 25 192 0.0 0.0 0.00 0.00 0.00 39 1006.8
20260502043101 8 360 0.0 0.0 0.00 0.00 0.00 36 1018.3
20260502043012 26 184 0.0 0.0 0.00 0.00 0.00 36 1006.6
20260502041554 8 360 0.0 0.0 0.00 0.00 0.00 36 1018.1
20260502041512 26 157 0.0 0.0 0.00 0.00 0.00 37 1006.5
20260502040057 9 360 0.0 0.0 0.00 0.00 0.00 34 1017.9
20260502040021 27 167 0.0 0.0 0.00 0.00 0.00 36 1006.2
20260502034549 10 360 0.0 0.0 0.00 0.00 0.00 31 1017.5
20260502034511 27 189 0.0 0.0 0.00 0.00 0.00 33 1005.7
20260502033050 11 360 0.0 0.0 0.00 0.00 0.00 27 1017.3
20260502033010 28 171 0.0 0.0 0.00 0.00 0.00 30 1005.3
20260502031547 11 360 0.0 0.0 0.00 0.00 0.00 28 1017.0
20260502031510 29 218 0.0 0.0 0.00 0.00 0.00 24 1005.1
20260502030049 12 360 0.0 0.0 0.00 0.00 0.00 25 1016.8
20260502030009 30 222 0.0 0.0 0.00 0.00 0.00 16 1004.8
20260502024546 12 360 0.0 0.0 0.00 0.00 0.00 25 1016.5
20260502024509 30 221 0.0 0.0 0.00 0.00 0.00 16 1004.6
20260502023046 13 360 0.0 0.0 0.00 0.00 0.00 24 1016.3
20260502023008 31 227 0.0 0.0 0.00 0.00 0.00 16 1004.4
20260502021546 13 360 0.0 0.0 0.00 0.00 0.00 23 1016.2
20260502021507 31 230 0.0 0.0 0.00 0.00 0.00 15 1004.4
20260502020044 14 360 0.0 0.0 0.00 0.00 0.00 22 1016.0
20260502020008 32 231 0.0 0.0 0.00 0.00 0.00 15 1004.3
20260502014544 15 360 0.0 0.0 0.00 0.00 0.00 21 1015.9
20260502014522 32 217 0.0 0.0 0.00 0.00 0.00 14 1004.3
20260502013044 15 360 0.0 0.0 0.00 0.00 0.00 22 1015.6
20260502013006 33 203 0.0 0.0 0.00 0.00 0.00 14 1004.3
20260502011542 15 360 0.0 0.0 0.00 0.00 0.00 21 1015.5
20260502011506 33 270 0.0 0.0 0.00 0.00 0.00 14 1004.2
20260502010041 16 360 0.0 0.0 0.00 0.00 0.00 21 1015.4
20260502010006 33 236 0.0 0.0 0.00 0.00 0.00 14 1004.2
20260502004540 16 360 0.0 0.0 0.00 0.00 0.00 20 1015.4
20260502004505 33 233 0.0 0.0 0.00 0.00 0.00 14 1004.2
20260502003039 16 360 0.0 0.0 0.00 0.00 0.00 20 1015.5
20260502003002 33 200 0.0 0.0 0.00 0.00 0.00 14 1004.2
20260502001547 16 360 0.0 0.0 0.00 0.00 0.00 20 1015.6
20260502001501 33 269 0.0 0.0 0.00 0.00 0.00 15 1004.3
20260502000038 16 360 0.0 0.0 0.00 0.00 0.00 20 1015.5
20260501234559 34 236 0.0 0.0 0.00 0.00 0.00 14 1004.5
20260501234539 17 360 0.0 0.0 0.00 0.00 0.00 20 1015.5
20260501233058 33 289 0.0 0.0 0.00 0.00 0.00 14 1004.5
20260501233036 17 360 0.0 0.0 0.00 0.00 0.00 20 1015.4
20260501231555 34 267 0.0 0.0 0.00 0.00 0.00 14 1004.6
20260501231535 16 360 0.0 0.0 0.00 0.00 0.00 21 1015.5
20260501230054 34 259 0.0 0.0 0.00 0.00 0.00 14 1004.8
20260501230038 16 360 0.0 0.0 0.00 0.00 0.00 21 1015.5
20260501224559 34 231 0.0 0.0 0.00 0.00 0.00 14 1004.9
20260501224536 16 360 0.0 0.0 0.00 0.00 0.00 21 1015.5
20260501223048 34 215 0.0 0.0 0.00 0.00 0.00 14 1005.2
20260501223032 16 360 0.0 0.0 0.00 0.00 0.00 21 1015.7
20260501221547 33 252 0.0 0.0 0.00 0.00 0.00 15 1005.4
20260501221530 16 360 0.0 0.0 0.00 0.00 0.00 22 1015.8
20260501220049 33 171 0.0 0.0 0.00 0.00 0.00 16 1005.6
20260501220032 16 360 0.0 0.0 0.00 0.00 0.00 23 1016.1
20260501214543 33 158 0.0 0.0 0.00 0.00 0.00 16 1005.9
20260501214538 15 360 0.0 0.0 0.00 0.00 0.00 22 1016.4
20260501213045 32 267 0.0 0.0 0.00 0.00 0.00 16 1006.2
20260501213024 15 360 0.0 0.0 0.00 0.00 0.00 24 1016.5
20260501211542 32 223 0.0 0.0 0.00 0.00 0.00 17 1006.5
20260501211523 15 360 0.0 0.0 0.00 0.00 0.00 24 1016.6
20260501210051 32 53 0.0 0.0 0.00 0.00 0.00 17 1006.7
20260501210023 15 360 0.0 0.0 0.00 0.00 0.00 24 1016.8
20260501204536 32 129 0.0 0.0 0.00 0.00 0.00 18 1006.9
20260501204521 15 360 0.0 0.0 0.00 0.00 0.00 27 1016.9
20260501203039 32 220 0.0 0.0 0.00 0.00 0.00 19 1007.1
20260501203021 14 360 0.0 0.0 0.00 0.00 0.00 24 1017.0
20260501201534 31 224 0.0 0.0 0.00 0.00 0.00 20 1007.2
20260501201521 14 360 0.0 0.0 0.00 0.00 0.00 26 1016.7
20260501200030 31 276 0.0 0.0 0.00 0.00 0.00 20 1007.4
20260501200028 14 360 0.0 0.0 0.00 0.00 0.00 25 1016.8
20260501194531 31 200 0.0 0.0 0.00 0.00 0.00 20 1007.5
20260501194528 13 360 0.0 0.0 0.00 0.00 0.00 26 1016.8
20260501193027 31 105 0.0 0.0 0.00 0.00 0.00 21 1007.6
20260501193019 13 360 0.0 0.0 0.00 0.00 0.00 26 1016.9
20260501191526 31 119 0.0 0.0 0.00 0.00 0.00 21 1007.9
20260501191521 14 360 0.0 0.0 0.00 0.00 0.00 25 1017.0
20260501190034 15 360 0.0 0.0 0.00 0.00 0.00 27 1016.9
20260501190022 30 180 0.0 0.0 0.00 0.00 0.00 22 1008.0
20260501184519 29 136 0.0 0.0 0.00 0.00 0.00 23 1008.4
20260501184516 13 360 0.0 0.0 0.00 0.00 0.00 27 1017.1
20260501183018 28 360 0.0 0.0 0.00 0.00 0.00 25 1008.5
20260501183016 13 360 0.0 0.0 0.00 0.00 0.00 27 1017.2
20260501181521 14 360 0.0 0.0 0.00 0.00 0.00 28 1017.1
20260501180023 14 360 0.0 0.0 0.00 0.00 0.00 28 1017.2
20260501180012 28 226 0.0 0.0 0.00 0.00 0.00 27 1008.7
20260501174513 14 360 0.0 0.0 0.00 0.00 0.00 30 1017.1
20260501174511 27 214 0.0 0.0 0.00 0.00 0.00 28 1008.8
20260501173020 14 360 0.0 0.0 0.00 0.00 0.00 29 1017.2
20260501173007 27 261 0.0 0.0 0.00 0.00 0.00 29 1008.9
20260501171513 26 222 0.0 0.0 0.00 0.00 0.00 30 1008.8
20260501170009 13 360 0.0 0.0 0.00 0.00 0.00 29 1017.2
20260501170007 26 197 0.0 0.0 0.00 0.00 0.00 31 1008.9
20260501164606 26 185 0.0 0.0 0.00 0.00 0.00 33 1008.9
20260501164504 12 360 0.0 0.0 0.00 0.00 0.00 33 1017.2
20260501163103 11 360 0.0 0.0 0.00 0.00 0.00 37 1017.3
20260501163056 25 155 0.0 0.0 0.00 0.00 0.00 34 1008.9
20260501161606 25 141 0.0 0.0 0.00 0.00 0.00 35 1008.9
20260501161558 10 360 0.0 0.0 0.00 0.00 0.00 39 1017.3
20260501160056 24 165 0.0 0.0 0.00 0.00 0.00 37 1008.8
20260501160054 9 360 0.0 0.0 0.00 0.00 0.00 41 1017.3
20260501154554 9 360 0.0 0.0 0.00 0.00 0.00 40 1017.3
20260501154549 23 168 0.0 0.0 0.00 0.00 0.00 38 1008.6
20260501153107 8 360 0.0 0.0 0.00 0.00 0.00 42 1017.3
20260501153052 23 207 0.0 0.0 0.00 0.00 0.00 40 1008.5